SCP
0 0 0 0 0 -0 0 -0 -0 0 0 0 0 0 0 0 0 0 0 0 0 0 0 0 0 0 0 0 0 0 0 0 0 0 0 0 0 0 0 0 0 0 0
-0 0 -0 0 0 0 0 -0 -0 -0 0 0 0 0 0 0 0 0 0 0 0 0 0 0 0 0 0 0 0 0 0 0 0 0 0 0 0 0 0 0 0 0 0
-0 0 -0 0 0 0 -0 -0 -0 -0 0 0 0 0 0 0 0 0 0 0 0 0 0 0 0 0 0 0 0 0 0 0 0 0 0 0 0 0 0 0 0 0 0
0 -0 0 0 -0 0 0 0 -0 0 0 0 0 0 0 0 0 0 0 0 0 0 0 0 0 0 0 0 0 0 0 0 0 0 0 0 0 0 0 0 0 0 0
-0 -0 -0 -0 -0 0 -0 0 0 0 0 0 0 0 0 0 0 0 0 0 0 0 0 0 0 0 0 0 0 0 0 0 0 0 0 0 0 0 0 0 0 0 0
-0 0 -0 0 0 0 0 0 0 0 0 0 0 0 0 0 0 0 0 0 0 0 0 0 0 0 0 0 0 0 0 0 0 0 0 0 0 0 0 0 0 0 0
-0 0 0 0 0 0 0 0 0 0 0 0 0 0 0 0 0 0 0 0 0 0 0 0 0 0 0 0 0 0 0 0 0 0 0 0 0 0 0 0 0 0 0
0 0 0 0 0 0 0 0 0 0 0 0 0 0 0 0 0 0 0 0 0 0 0 0 0 0 0 0 0 0 0 0 0 0 0 0 0 0 0 0 0 0 0
0 0 0 0 1 1 1 0 0 0 0 0 0 0 0 0 0 0 0 0 0 0 0 0 0 0 0 0 0 0 0 0 0 0 0 0 0 0 0 0 0 0 0
0 0 0 0 2 1 0 1 0 0 0 0 0 0 0 0 0 0 0 0 0 0 0 0 0 0 0 0 0 0 0 0 0 0 0 0 0 0 0 0 0 0 0
0 0 1 0 0 0 0 0 0 0 0 0 0 0 0 0 0 0 0 0 0 0 0 0 0 0 0 0 0 0 0 0 0 0 0 0 0 0 0 0 0 0 0
0 0 0 0 0 0 0 0 0 0 0 0 0 0 0 0 0 0 0 0 0 0 0 0 0 0 0 0 0 0 0 0 0 0 0 0 0 0 0 0 0 0 0
0 0 0 0 0 0 0 0 0 0 0 0 0 0 0 0 0 0 0 0 0 0 0 0 0 0 0 0 -0 0 0 0 0 0 0 0 0 0 0 0 0 0 0
0 0 0 0 0 0 0 0 0 0 0 0 0 0 0 0 0 0 0 0 0 0 0 0 -0 -0 -0 -0 0 0 0 0 0 0 0 0 0 0 0 0 0 0 0
0 0 0 0 0 0 0 0 0 0 0 0 0 0 0 0 0 0 0 0 0 0 0 -0 -0 -0 0 0 0 0 0 0 0 0 0 0 0 0 0 0 0 0 0
0 0 0 0 0 0 0 0 0 0 0 0 0 0 0 0 0 0 0 0 0 0 0 0 0 0 0 0 0 0 0 0 0 0 0 0 0 0 0 0 0 0 0
0 0 0 0 0 0 0 0 0 0 0 0 0 0 0 0 0 0 0 0 0 0 0 0 0 0 0 0 0 0 0 0 0 0 0 0 0 0 0 0 0 0 0
0 0 0 0 0 0 0 0 0 0 0 0 0 0 0 0 0 0 0 0 0 0 0 0 0 0 0 0 0 0 0 0 0 0 0 0 0 0 0 0 0 0 0
0 0 0 0 0 0 0 0 0 0 0 0 0 0 0 0 0 0 0 0 0 0 0 0 0 0 0 0 0 0 0 0 0 0 0 0 0 0 0 0 0 0 0
0 0 0 0 0 0 0 0 0 0 0 0 0 0 0 0 0 0 0 0 0 0 0 0 0 0 0 0 0 0 0 0 0 0 0 0 0 0 0 0 0 0 0
0 0 0 0 0 0 0 -0 0 0 0 0 0 0 0 0 0 0 0 0 0 0 0 0 0 0 0 0 0 0 0 0 0 0 0 0 0 0 0 0 0 0 0
0 0 0 0 -0 0 0 -0 0 0 0 0 0 0 0 0 0 0 0 0 0 0 0 0 0 0 0 0 0 0 0 0 0 0 0 0 0 0 0 0 0 0 0
0 0 0 -0 0 0 -0 -0 0 0 0 0 0 0 0 0 0 0 0 0 0 0 0 0 0 0 0 0 0 0 0 0 0 0 0 0 0 0 0 0 0 0 0
0 0 0 0 0 -0 -0 -0 0 0 0 0 0 0 0 0 0 0 0 0 0 0 0 0 0 0 0 0 0 0 0 0 0 0 0 0 0 0 0 0 0 0 0
0 0 0 0 0 0 0 0 0 0 0 0 0 0 0 0 0 0 0 0 0 0 0 0 0 0 0 0 0 0 0 0 0 0 0 0 0 0 0 0 0 0 0
0 0 0 0 0 0 0 0 0 0 0 0 0 0 0 0 0 0 0 0 0 0 0 0 0 0 -0 -0 -0 -0 -0 -0 -0 0 0 0 0 0 0 0 0 0 0
Wind_Speed_500mb
63 60 58 53 54 53 50 42 38 34 35 39 38 37 34 28 26 21 15 13 10 16 21 23 27 29 28 29 28 26 24 25 26 28 29 32 32 34 34 35 37 36 33
74 66 64 63 62 54 51 50 41 36 41 39 36 36 30 30 30 25 21 17 16 18 23 26 25 30 31 29 28 28 25 25 26 30 32 30 34 41 42 42 46 44 45
80 77 75 71 69 68 59 53 50 43 33 41 39 37 36 36 34 32 26 18 16 14 15 19 22 25 27 29 27 29 34 34 32 32 31 18 18 26 28 29 39 47 53
80 77 75 76 75 73 66 61 58 54 39 43 45 43 37 36 28 25 24 23 19 18 20 23 25 24 26 27 26 27 30 33 36 33 36 41 48 43 37 35 32 32 39
82 80 80 81 75 77 70 61 62 61 50 45 47 45 36 36 31 28 24 22 19 16 21 24 28 30 33 37 33 30 28 31 34 33 37 39 44 50 53 69 47 42 50
86 81 77 77 75 75 70 64 62 60 54 46 43 41 32 27 29 29 28 25 21 12 18 21 25 33 39 39 37 38 39 37 41 40 42 45 47 48 50 52 62 65 66
89 89 83 82 83 72 73 61 52 56 49 45 38 33 31 28 30 27 30 28 24 14 33 23 25 35 40 40 41 41 43 40 45 44 45 45 47 49 51 53 57 63 71
88 94 91 85 87 76 72 57 47 44 44 41 38 34 33 33 28 30 33 37 32 32 33 42 42 42 41 42 39 36 37 34 36 38 40 43 48 49 49 46 49 57 58
79 92 92 88 82 75 65 53 48 36 33 35 33 31 28 29 28 29 38 42 39 35 33 33 37 31 31 29 20 22 29 32 35 38 40 41 41 42 41 40 39 42 49
70 72 80 77 66 73 51 55 44 33 27 26 24 24 23 24 26 24 28 33 29 30 31 28 16 17 18 22 26 31 35 34 36 38 40 39 35 32 34 36 37 40 41
54 56 61 54 49 35 48 42 39 30 20 20 20 19 15 15 20 22 18 22 27 26 7 9 9 18 22 26 32 35 32 34 34 31 30 31 33 35 36 38 41 43 42
46 43 42 45 32 30 61 48 30 24 10 12 16 9 7 8 13 11 7 4 4 2 2 5 12 18 27 34 31 21 20 21 23 26 31 33 35 36 39 41 39 43 43
44 45 47 46 43 51 56 34 19 9 10 12 6 4 4 6 5 4 9 6 3 1 8 14 20 30 29 18 13 19 25 27 32 34 33 35 34 37 38 40 41 43 45
60 48 36 36 40 47 34 16 11 10 13 3 6 4 9 10 8 8 6 6 6 4 11 22 27 22 19 18 25 27 31 30 33 39 38 36 35 39 42 45 46 45 43
33 36 35 32 33 29 20 17 12 16 8 4 4 6 5 8 4 5 7 6 3 12 23 16 21 26 28 27 31 37 37 38 36 35 34 36 38 42 46 51 44 45 46
44 40 37 31 26 22 23 20 17 19 16 7 3 5 6 6 5 2 1 4 15 22 19 19 29 33 33 33 38 46 44 49 48 45 46 45 48 55 60 56 51 49 47
30 36 36 32 27 20 18 21 19 16 12 13 17 18 10 6 19 7 14 11 18 21 21 29 36 39 42 39 43 39 46 47 40 47 53 53 52 52 49 48 47 48 51
43 19 32 39 35 16 10 9 11 8 1 8 10 11 13 10 12 13 10 13 22 24 27 32 36 41 42 41 46 51 47 47 50 45 48 51 51 52 63 67 64 59 60
44 50 41 27 34 30 27 7 4 5 1 6 9 10 12 12 16 14 15 18 22 28 33 33 34 36 40 44 51 56 50 42 42 39 36 46 55 63 67 70 73 74 73
51 41 33 34 21 23 21 13 17 4 1 3 7 10 11 12 13 17 23 26 30 32 33 34 33 40 43 48 43 37 36 39 36 38 44 36 34 47 51 55 58 64 57
40 25 33 10 12 15 12 23 17 11 9 8 4 9 10 12 19 25 30 34 32 34 36 34 38 44 41 33 38 32 32 36 42 34 23 34 41 48 66 53 50 50 44
30 20 3 4 9 14 31 32 21 19 13 9 9 12 16 22 28 31 33 30 29 30 37 43 44 34 32 34 33 28 31 35 26 25 26 33 39 43 52 57 45 42 34
36 12 13 39 37 30 34 29 25 17 13 15 17 18 24 26 27 33 33 30 36 42 42 40 35 35 32 34 28 24 33 27 20 31 29 32 38 36 38 48 42 36 32
30 13 20 29 30 36 30 25 16 13 15 16 16 14 17 20 24 29 36 42 39 35 30 32 35 32 26 25 28 29 21 14 23 27 25 33 31 34 39 36 32 32 37
20 18 20 26 28 35 27 15 12 11 12 10 11 16 17 22 29 33 33 32 24 24 29 28 26 26 22 19 20 20 25 25 30 30 30 31 38 43 46 35 32 32 34
17 13 19 27 25 12 11 10 4 8 5 7 13 22 26 31 38 27 23 19 20 24 17 17 19 23 25 24 21 21 27 31 33 35 33 31 33 36 41 38 36 31 33
Wind_Direction_500mb
225 227 221 223 225 224 224 221 224 227 222 225 232 232 233 246 263 263 259 269 288 272 270 284 295 307 306 305 300 288 268 264 276 276 280 271 264 264 269 273 270 267 270
224 224 225 225 226 224 225 224 225 233 235 237 242 243 250 260 263 254 248 269 274 288 282 287 293 301 302 302 294 283 278 273 272 276 287 291 276 269 273 277 265 267 263
222 223 226 229 227 223 226 228 231 225 239 241 239 243 242 245 246 245 253 275 274 292 292 297 299 303 312 305 288 275 276 280 279 276 273 289 280 299 296 288 271 267 263
226 226 227 231 232 226 229 231 232 230 238 239 237 240 244 239 243 240 244 254 267 274 283 295 302 302 317 314 298 277 277 281 284 281 280 277 278 283 291 286 280 278 273
226 227 227 230 233 229 229 234 233 231 234 242 243 242 245 238 245 246 240 243 234 253 278 290 299 298 300 304 302 285 284 285 290 294 298 295 285 282 277 284 288 275 276
230 233 232 232 233 231 229 232 233 233 235 242 245 245 250 242 244 245 237 242 240 248 264 268 290 296 294 294 290 288 283 286 292 299 302 300 297 292 289 280 288 288 284
229 231 234 232 231 228 227 230 228 235 238 243 248 245 246 247 248 248 245 254 260 264 271 271 287 295 292 289 293 289 292 300 297 295 296 296 291 290 290 291 290 291 293
224 228 230 234 230 226 224 219 213 223 230 237 247 251 249 253 256 258 258 250 267 276 278 282 284 293 288 290 289 293 297 302 305 304 302 298 297 296 296 295 294 291 286
220 229 223 229 229 223 221 207 206 211 225 232 239 241 245 258 261 261 261 265 268 268 283 264 265 282 289 294 311 316 317 317 319 313 307 304 302 299 299 298 295 291 287
211 215 219 222 218 213 205 198 208 209 220 231 239 243 241 245 254 254 268 270 262 263 269 283 289 296 290 312 315 319 317 312 306 301 299 297 299 303 308 304 302 302 297
194 201 204 204 201 191 206 205 199 203 211 227 227 215 217 242 248 257 259 261 265 286 265 297 307 292 301 311 319 319 313 297 293 298 303 303 304 305 305 302 299 298 297
176 186 182 174 159 216 247 203 180 163 172 194 197 208 232 230 231 247 293 233 160 144 158 305 300 311 321 324 321 310 297 304 310 314 314 311 308 310 312 311 306 300 298
154 159 167 157 169 177 193 178 161 114 122 148 225 190 115 154 183 113 115 128 122 150 308 317 321 332 336 332 328 336 332 327 330 330 328 330 319 316 320 318 316 313 305
154 165 162 153 160 176 180 173 122 94 129 24 65 44 88 87 81 93 109 145 166 319 335 349 357 357 352 342 341 342 342 333 322 323 311 309 305 307 304 304 304 311 306
144 148 151 154 163 165 164 165 156 132 146 110 49 6 23 17 30 98 151 173 4 350 355 359 13 4 356 342 335 331 324 315 309 315 323 316 304 308 309 307 301 302 300
139 141 141 144 144 151 157 160 156 152 142 114 69 3 6 45 46 106 15 350 350 351 338 330 334 338 338 328 334 321 314 311 307 312 319 312 303 302 304 300 291 297 299
123 127 122 117 115 119 131 136 120 105 64 30 2 347 335 307 303 299 304 320 334 331 322 325 323 309 308 307 318 310 304 300 302 311 311 311 311 310 307 307 294 287 287
131 110 127 130 128 115 103 139 134 121 50 332 303 283 272 280 278 294 295 319 323 314 305 309 304 306 310 305 304 306 301 301 308 311 311 313 314 312 306 301 292 286 280
151 145 147 163 145 147 140 129 232 203 312 311 296 308 288 285 300 296 306 304 309 309 313 310 305 303 298 303 309 312 313 318 320 319 320 316 311 308 304 296 290 286 280
152 157 152 152 148 156 153 174 215 240 219 308 300 301 289 304 311 298 287 295 296 301 305 306 301 302 307 312 320 326 327 323 325 326 323 323 342 351 351 336 323 305 299
150 148 146 131 85 129 172 207 232 241 223 220 279 291 277 290 284 281 290 293 297 300 305 303 304 309 311 315 319 318 325 328 331 333 348 354 358 355 357 342 335 322 307
155 154 31 347 272 253 217 206 229 206 207 222 255 259 271 285 291 298 300 295 297 303 305 304 306 307 304 309 312 312 325 331 336 341 339 339 345 349 357 357 346 347 342
190 256 190 189 216 209 194 204 196 201 221 247 261 279 291 299 308 310 305 304 307 308 306 306 304 309 304 303 305 302 322 322 320 322 326 332 336 342 352 3 0 3 6
209 260 235 225 205 189 196 199 206 224 252 273 282 284 287 297 297 305 311 310 304 301 308 312 319 322 318 312 310 315 328 328 316 323 318 328 339 346 340 335 352 0 358
227 246 252 219 186 186 184 219 240 244 251 255 281 291 292 306 313 315 314 303 301 311 323 334 344 351 10 30 45 30 10 356 354 345 334 330 331 336 338 332 335 336 347
274 263 188 182 180 186 202 183 204 255 275 291 302 294 297 316 312 303 304 304 305 319 351 26 41 61 55 47 40 19 4 353 347 339 335 337 341 349 354 358 359 358 353
Wind_Speed_850mb
63 60 58 53 54 53 50 42 38 34 35 39 38 37 34 28 26 21 15 13 10 16 21 23 27 29 28 29 28 26 24 25 26 28 29 32 32 34 34 35 37 36 33
74 66 64 63 62 54 51 50 41 36 41 39 36 36 30 30 30 25 21 17 16 18 23 26 25 30 31 29 28 28 25 25 26 30 32 30 34 41 42 42 46 44 45
80 77 75 71 69 68 59 53 50 43 33 41 39 37 36 36 34 32 26 18 16 14 15 19 22 25 27 29 27 29 34 34 32 32 31 18 18 26 28 29 39 47 53
80 77 75 76 75 73 66 61 58 54 39 43 45 43 37 36 28 25 24 23 19 18 20 23 25 24 26 27 26 27 30 33 36 33 36 41 48 43 37 35 32 32 39
82 80 80 81 75 77 70 61 62 61 50 45 47 45 36 36 31 28 24 22 19 16 21 24 28 30 33 37 33 30 28 31 34 33 37 39 44 50 53 69 47 42 50
86 81 77 77 75 75 70 64 62 60 54 46 43 41 32 27 29 29 28 25 21 12 18 21 25 33 39 39 37 38 39 37 41 40 42 45 47 48 50 52 62 65 66
89 89 83 82 83 72 73 61 52 56 49 45 38 33 31 28 30 27 30 28 24 14 33 23 25 35 40 40 41 41 43 40 45 44 45 45 47 49 51 53 57 63 71
88 94 91 85 87 76 72 57 47 44 44 41 38 34 33 33 28 30 33 37 32 32 33 42 42 42 41 42 39 36 37 34 36 38 40 43 48 49 49 46 49 57 58
79 92 92 88 82 75 65 53 48 36 33 35 33 31 28 29 28 29 38 42 39 35 33 33 37 31 31 29 20 22 29 32 35 38 40 41 41 42 41 40 39 42 49
70 72 80 77 66 73 51 55 44 33 27 26 24 24 23 24 26 24 28 33 29 30 31 28 16 17 18 22 26 31 35 34 36 38 40 39 35 32 34 36 37 40 41
54 56 61 54 49 35 48 42 39 30 20 20 20 19 15 15 20 22 18 22 27 26 7 9 9 18 22 26 32 35 32 34 34 31 30 31 33 35 36 38 41 43 42
46 43 42 45 32 30 61 48 30 24 10 12 16 9 7 8 13 11 7 4 4 2 2 5 12 18 27 34 31 21 20 21 23 26 31 33 35 36 39 41 39 43 43
44 45 47 46 43 51 56 34 19 9 10 12 6 4 4 6 5 4 9 6 3 1 8 14 20 30 29 18 13 19 25 27 32 34 33 35 34 37 38 40 41 43 45
60 48 36 36 40 47 34 16 11 10 13 3 6 4 9 10 8 8 6 6 6 4 11 22 27 22 19 18 25 27 31 30 33 39 38 36 35 39 42 45 46 45 43
33 36 35 32 33 29 20 17 12 16 8 4 4 6 5 8 4 5 7 6 3 12 23 16 21 26 28 27 31 37 37 38 36 35 34 36 38 42 46 51 44 45 46
44 40 37 31 26 22 23 20 17 19 16 7 3 5 6 6 5 2 1 4 15 22 19 19 29 33 33 33 38 46 44 49 48 45 46 45 48 55 60 56 51 49 47
30 36 36 32 27 20 18 21 19 16 12 13 17 18 10 6 19 7 14 11 18 21 21 29 36 39 42 39 43 39 46 47 40 47 53 53 52 52 49 48 47 48 51
43 19 32 39 35 16 10 9 11 8 1 8 10 11 13 10 12 13 10 13 22 24 27 32 36 41 42 41 46 51 47 47 50 45 48 51 51 52 63 67 64 59 60
44 50 41 27 34 30 27 7 4 5 1 6 9 10 12 12 16 14 15 18 22 28 33 33 34 36 40 44 51 56 50 42 42 39 36 46 55 63 67 70 73 74 73
51 41 33 34 21 23 21 13 17 4 1 3 7 10 11 12 13 17 23 26 30 32 33 34 33 40 43 48 43 37 36 39 36 38 44 36 34 47 51 55 58 64 57
40 25 33 10 12 15 12 23 17 11 9 8 4 9 10 12 19 25 30 34 32 34 36 34 38 44 41 33 38 32 32 36 42 34 23 34 41 48 66 53 50 50 44
30 20 3 4 9 14 31 32 21 19 13 9 9 12 16 22 28 31 33 30 29 30 37 43 44 34 32 34 33 28 31 35 26 25 26 33 39 43 52 57 45 42 34
36 12 13 39 37 30 34 29 25 17 13 15 17 18 24 26 27 33 33 30 36 42 42 40 35 35 32 34 28 24 33 27 20 31 29 32 38 36 38 48 42 36 32
30 13 20 29 30 36 30 25 16 13 15 16 16 14 17 20 24 29 36 42 39 35 30 32 35 32 26 25 28 29 21 14 23 27 25 33 31 34 39 36 32 32 37
20 18 20 26 28 35 27 15 12 11 12 10 11 16 17 22 29 33 33 32 24 24 29 28 26 26 22 19 20 20 25 25 30 30 30 31 38 43 46 35 32 32 34
17 13 19 27 25 12 11 10 4 8 5 7 13 22 26 31 38 27 23 19 20 24 17 17 19 23 25 24 21 21 27 31 33 35 33 31 33 36 41 38 36 31 33
Wind_Direction_850mb
225 227 221 223 225 224 224 221 224 227 222 225 232 232 233 246 263 263 259 269 288 272 270 284 295 307 306 305 300 288 268 264 276 276 280 271 264 264 269 273 270 267 270
224 224 225 225 226 224 225 224 225 233 235 237 242 243 250 260 263 254 248 269 274 288 282 287 293 301 302 302 294 283 278 273 272 276 287 291 276 269 273 277 265 267 263
222 223 226 229 227 223 226 228 231 225 239 241 239 243 242 245 246 245 253 275 274 292 292 297 299 303 312 305 288 275 276 280 279 276 273 289 280 299 296 288 271 267 263
226 226 227 231 232 226 229 231 232 230 238 239 237 240 244 239 243 240 244 254 267 274 283 295 302 302 317 314 298 277 277 281 284 281 280 277 278 283 291 286 280 278 273
226 227 227 230 233 229 229 234 233 231 234 242 243 242 245 238 245 246 240 243 234 253 278 290 299 298 300 304 302 285 284 285 290 294 298 295 285 282 277 284 288 275 276
230 233 232 232 233 231 229 232 233 233 235 242 245 245 250 242 244 245 237 242 240 248 264 268 290 296 294 294 290 288 283 286 292 299 302 300 297 292 289 280 288 288 284
229 231 234 232 231 228 227 230 228 235 238 243 248 245 246 247 248 248 245 254 260 264 271 271 287 295 292 289 293 289 292 300 297 295 296 296 291 290 290 291 290 291 293
224 228 230 234 230 226 224 219 213 223 230 237 247 251 249 253 256 258 258 250 267 276 278 282 284 293 288 290 289 293 297 302 305 304 302 298 297 296 296 295 294 291 286
220 229 223 229 229 223 221 207 206 211 225 232 239 241 245 258 261 261 261 265 268 268 283 264 265 282 289 294 311 316 317 317 319 313 307 304 302 299 299 298 295 291 287
211 215 219 222 218 213 205 198 208 209 220 231 239 243 241 245 254 254 268 270 262 263 269 283 289 296 290 312 315 319 317 312 306 301 299 297 299 303 308 304 302 302 297
194 201 204 204 201 191 206 205 199 203 211 227 227 215 217 242 248 257 259 261 265 286 265 297 307 292 301 311 319 319 313 297 293 298 303 303 304 305 305 302 299 298 297
176 186 182 174 159 216 247 203 180 163 172 194 197 208 232 230 231 247 293 233 160 144 158 305 300 311 321 324 321 310 297 304 310 314 314 311 308 310 312 311 306 300 298
154 159 167 157 169 177 193 178 161 114 122 148 225 190 115 154 183 113 115 128 122 150 308 317 321 332 336 332 328 336 332 327 330 330 328 330 319 316 320 318 316 313 305
154 165 162 153 160 176 180 173 122 94 129 24 65 44 88 87 81 93 109 145 166 319 335 349 357 357 352 342 341 342 342 333 322 323 311 309 305 307 304 304 304 311 306
144 148 151 154 163 165 164 165 156 132 146 110 49 6 23 17 30 98 151 173 4 350 355 359 13 4 356 342 335 331 324 315 309 315 323 316 304 308 309 307 301 302 300
139 141 141 144 144 151 157 160 156 152 142 114 69 3 6 45 46 106 15 350 350 351 338 330 334 338 338 328 334 321 314 311 307 312 319 312 303 302 304 300 291 297 299
123 127 122 117 115 119 131 136 120 105 64 30 2 347 335 307 303 299 304 320 334 331 322 325 323 309 308 307 318 310 304 300 302 311 311 311 311 310 307 307 294 287 287
131 110 127 130 128 115 103 139 134 121 50 332 303 283 272 280 278 294 295 319 323 314 305 309 304 306 310 305 304 306 301 301 308 311 311 313 314 312 306 301 292 286 280
151 145 147 163 145 147 140 129 232 203 312 311 296 308 288 285 300 296 306 304 309 309 313 310 305 303 298 303 309 312 313 318 320 319 320 316 311 308 304 296 290 286 280
152 157 152 152 148 156 153 174 215 240 219 308 300 301 289 304 311 298 287 295 296 301 305 306 301 302 307 312 320 326 327 323 325 326 323 323 342 351 351 336 323 305 299
150 148 146 131 85 129 172 207 232 241 223 220 279 291 277 290 284 281 290 293 297 300 305 303 304 309 311 315 319 318 325 328 331 333 348 354 358 355 357 342 335 322 307
155 154 31 347 272 253 217 206 229 206 207 222 255 259 271 285 291 298 300 295 297 303 305 304 306 307 304 309 312 312 325 331 336 341 339 339 345 349 357 357 346 347 342
190 256 190 189 216 209 194 204 196 201 221 247 261 279 291 299 308 310 305 304 307 308 306 306 304 309 304 303 305 302 322 322 320 322 326 332 336 342 352 3 0 3 6
209 260 235 225 205 189 196 199 206 224 252 273 282 284 287 297 297 305 311 310 304 301 308 312 319 322 318 312 310 315 328 328 316 323 318 328 339 346 340 335 352 0 358
227 246 252 219 186 186 184 219 240 244 251 255 281 291 292 306 313 315 314 303 301 311 323 334 344 351 10 30 45 30 10 356 354 345 334 330 331 336 338 332 335 336 347
274 263 188 182 180 186 202 183 204 255 275 291 302 294 297 316 312 303 304 304 305 319 351 26 41 61 55 47 40 19 4 353 347 339 335 337 341 349 354 358 359 358 353